Location: Cactus School
(34.5700°N, 118.0931°W)
Time: 14:57:09
(UTC-07:00)

deb Explorer IX - Pass Details

Date: 21 April 2024
Orbit: 513 x 892 km, 38.7° (Epoch: 20 May)

Event Time Altitude Azimuth Distance (km) Brightness Sun altitude
Rises 14:01:11 0° 282° (WNW) 3,465 ? 62.6°
Reaches altitude 10° 14:03:46 10° 286° (WNW) 2,555 ? 62.2°
Maximum altitude 14:09:53 61° 6° (N) 1,023 ? 61.4°
Drops below altitude 10° 14:16:02 10° 86° (E) 2,558 ? 60.5°
Sets 14:18:37 0° 90° (E) 3,470 ? 60.1°
